Everett, WA

10:55 AM PDT on October 19, 2019 (GMT -0700)
Snohomish County

Weather History for KPAE - August, 2019

Change the Weather History Date:

Saturday, August 24, 2019

  Actual Average Record
Temperature  
Mean Temperature 64 °F -  
Max Temperature 72 °F 72 °F 86 °F (1981)
Min Temperature 57 °F 52 °F 41 °F (1992)
Growing Degree Days 14 (Base 50)    
Moisture  
Dew Point 51 °F    
Average Humidity 68    
Maximum Humidity 83    
Minimum Humidity 44    
Precipitation  
Precipitation 0.00 in - - ()
Sea Level Pressure  
Sea Level Pressure 29.99 in    
Wind  
Wind Speed 5 mph (North)    
Max Wind Speed 10 mph    
Max Gust Speed 17 mph    
Visibility 10 miles    
Events      
Averages and records for this station are not official NWS values.
T = Trace of Precipitation, MM = Missing Value Source: NWS Daily Summary

Daily Weather History Graph

Daily Weather History Graph

Search for Another Location

Airport or City:

Astronomy

Aug. 24, 2019 Rise Set
Actual Time 6:16 AM PDT 8:05 PM PDT
Civil Twilight 5:43 AM PDT 8:38 PM PDT
Nautical Twilight 5:02 AM PDT 9:18 PM PDT
Astronomical Twilight 4:17 AM PDT 10:03 PM PDT
Moon 12:03 AM PDT (8/24) 3:40 PM PDT (8/24)
Length of Visible Light 14h 55m
Length of Day
13h 49m
Last Quarter, 38% of the Moon is Illuminated
Aug 24
Last Quarter
Aug 30
New
Sep 5
First Quarter
Sep 13
Full
Sep 21
Last Quarter

Hourly Weather History & Observations

Time (PDT) Temp. Dew Point Humidity Pressure Visibility Wind Dir Wind Speed Gust Speed Precip Events Conditions
12:53 AM 57.0 °F 48.0 °F 72% 29.94 in 10.0 mi North 3.5 mph - N/A   Scattered Clouds
1:53 AM 57.0 °F 48.9 °F 74% 29.94 in 10.0 mi Variable 4.6 mph - N/A   Overcast
2:53 AM 57.9 °F 51.1 °F 78% 29.94 in 10.0 mi NNE 5.8 mph - N/A   Overcast
3:53 AM 57.0 °F 51.1 °F 81% 29.94 in 10.0 mi NNE 4.6 mph - N/A   Mostly Cloudy
4:53 AM 59.0 °F 51.1 °F 75% 29.94 in 10.0 mi NE 3.5 mph - N/A   Overcast
5:53 AM 59.0 °F 51.1 °F 75% 29.96 in 10.0 mi Calm Calm - N/A   Overcast
6:53 AM 59.0 °F 50.0 °F 72% 29.96 in 10.0 mi Calm Calm - N/A   Overcast
7:53 AM 60.1 °F 48.0 °F 64% 29.98 in 10.0 mi Calm Calm - N/A   Overcast
8:53 AM 61.0 °F 50.0 °F 67% 29.98 in 10.0 mi SSE 4.6 mph - N/A   Mostly Cloudy
9:53 AM 63.0 °F 52.0 °F 67% 29.99 in 10.0 mi Variable 3.5 mph - N/A   Overcast
10:53 AM 66.9 °F 46.0 °F 47% 30.00 in 10.0 mi North - - N/A   Partly Cloudy
11:53 AM 66.9 °F 51.1 °F 57% 30.01 in 10.0 mi West 9.2 mph - N/A   Partly Cloudy
12:53 PM 69.1 °F 53.1 °F 57% 30.00 in 10.0 mi West 10.4 mph - N/A   Mostly Cloudy
1:53 PM 69.1 °F 51.1 °F 53% 30.01 in 10.0 mi West 9.2 mph - N/A   Clear
2:53 PM 72.0 °F 48.9 °F 44% 30.00 in 10.0 mi WSW 8.1 mph - N/A   Partly Cloudy
3:53 PM 71.1 °F 52.0 °F 51% 30.01 in 10.0 mi North 8.1 mph - N/A   Partly Cloudy
4:53 PM 66.9 °F 53.1 °F 61% 30.02 in 10.0 mi North 9.2 mph 17.3 mph N/A   Overcast
5:53 PM 64.9 °F 54.0 °F 68% 30.02 in 10.0 mi North 8.1 mph - N/A   Overcast
6:53 PM 63.0 °F 54.0 °F 72% 30.03 in 10.0 mi North 9.2 mph - N/A   Overcast
7:53 PM 61.0 °F 54.0 °F 78% 30.03 in 10.0 mi North 8.1 mph - N/A   Overcast
8:53 PM 60.1 °F 55.0 °F 83% 30.03 in 10.0 mi North 9.2 mph 17.3 mph N/A   Overcast
9:53 PM 59.0 °F 53.1 °F 81% 30.04 in 10.0 mi North 10.4 mph - N/A   Overcast
10:53 PM 59.0 °F 52.0 °F 78% 30.05 in 10.0 mi North 5.8 mph - N/A   Overcast
11:53 PM 59.0 °F 52.0 °F 78% 30.05 in 10.0 mi North 6.9 mph - N/A   Overcast